Location: Andrest
(43.3200°N, 0.0641°E)
Time: 20:55:04
(UTC+00:00)

Cosmos 2239 Rocket - Pass Details

Date: 01 December 2020
Orbit: 955 x 990 km, 82.9° (Epoch: 20 January)

Event Time Altitude Azimuth Distance (km) Brightness Sun altitude
Rises 18:36:26 0° 351° (N) 3,649 7.5 -23.3°
Reaches altitude 10° 18:38:56 10° 351° (N) 2,701 6.8 -23.7°
Maximum altitude 18:45:08 86° 263° (W) 973 4.4 -24.8°
Drops below altitude 10° 18:51:20 10° 176° (S) 2,705 6.8 -25.9°
Sets 18:53:50 0° 176° (S) 3,653 7.5 -26.4°
